Regional Weather Roundup
Issued by NWS

Home | Current Version | Previous Version | Graphics & Text | Print | Product List | Glossary On
Versions: 1 2 3 4 5 6 7 8 9 10 11 12 13 14 15 16 17 18 19 20 21 22 23 24 25 26 27 28 29 30 31 32 33 34 35 36 37 38 39 40 41 42 43 44 45 46 47 48 49 50
000
ASUS43 KFSD 311010
RWRSD

WEATHER ROUNDUP FOR SOUTH DAKOTA
NATIONAL WEATHER SERVICE SIOUX FALLS SD
500 AM CDT THU JUL 31 2014

NOTE: "FAIR" INDICATES FEW OR NO CLOUDS BELOW 12,000 FEET WITH NO
SIGNIFICANT WEATHER AND/OR OBSTRUCTIONS TO VISIBILITY.


SDZ001>005-009-010-012>017-311100-
NORTHWEST AND NORTH CENTRAL SOUTH DAKOTA

CITY           SKY/WX    TMP DP  RH WIND       PRES   REMARKS
BUFFALO          N/A     58  50  75 N5        30.09R
FAITH            N/A     59  55  87 NW3       30.11S
MOBRIDGE       PTCLDY    59  53  80 E3        30.07S
$$

SDZ012>016-024>037-041>051-057-063-072>074-311100-
SOUTHWEST AND SOUTH CENTRAL SOUTH DAKOTA

CITY           SKY/WX    TMP DP  RH WIND       PRES   REMARKS
RAPID CTY ARPT CLEAR     58  48  69 NW10      30.16S
PIERRE         CLEAR     58  54  86 N6        30.05S
CUSTER         CLEAR     53  40  61 NW6       30.29R
ELLSWORTH AFB  CLEAR     57  49  74 W7        30.16S
PHILIP         PTCLDY    58  53  84 W5        30.09R
PINE RIDGE     PTCLDY    52  48  86 CALM      30.17R
WINNER         FAIR      60  53  77 W7        30.04S
$$

SDZ004>011-016>023-039-040-311100-
NORTHEAST SOUTH DAKOTA

CITY           SKY/WX    TMP DP  RH WIND       PRES   REMARKS
ABERDEEN       PTCLDY    58  55  90 N3        30.09R
WATERTOWN      CLEAR     55  52  89 CALM      30.09S
SISSETON         N/A     55  53  93 NW3       30.05S
$$

SDZ017-020-022-023-036>040-048>070-311100-
SOUTHEAST SOUTH DAKOTA

CITY           SKY/WX    TMP DP  RH WIND       PRES   REMARKS
SIOUX FALLS    PTCLDY    55  53  93 CALM      30.09R
HURON          CLOUDY    59  57  93 CALM      30.07S
CHAMBERLAIN    PTCLDY    65  56  71 E10       30.05S
MITCHELL       CLOUDY    66  63  90 S5        30.08S
YANKTON        MOCLDY    63  55  77 CALM      30.08S
$$

ABBREVIATIONS USED IN REMARKS
   TC - TEMPERATURE IN CELSIUS
  WCI - WIND CHILL INDEX
   HX - HEAT INDEX
  VSB - VISIBILITY




USA.gov is the U.S. government's official web portal to all federal, state and local government web resources and services.